Date,TemperatureHighF,TemperatureAvgF,TemperatureLowF,DewpointHighF,DewpointAvgF,DewpointLowF,HumidityHigh,HumidityAvg,HumidityLow,PressureMaxIn,PressureMinIn,WindSpeedMaxMPH,WindSpeedAvgMPH,GustSpeedMaxMPH,PrecipitationSumIn
2013-11-1,65,56,50,38,30,23,58,37,23,30.18,30.07,6,0,6,0.00
2013-11-2,63,56,49,35,28,21,53,35,25,30.08,29.90,6,0,6,0.00
2013-11-3,55,48,42,41,36,30,74,62,51,29.93,29.81,7,0,7,0.00
2013-11-4,50,44,40,36,27,14,78,52,32,29.99,29.78,5,0,5,0.00
2013-11-5,52,46,40,32,25,10,57,44,26,30.23,29.98,4,0,4,0.00
2013-11-6,61,53,46,33,27,20,52,38,25,30.26,30.20,5,0,5,0.00
2013-11-7,64,57,54,28,22,17,30,25,20,30.22,30.09,5,0,5,0.00
2013-11-8,63,56,52,35,23,15,49,29,21,30.10,29.99,4,0,4,0.00
2013-11-9,63,56,50,32,27,23,39,32,27,30.06,29.99,5,0,5,0.00
2013-11-10,64,58,53,26,19,9,33,22,14,30.13,30.06,5,0,5,0.00
2013-11-11,68,60,54,27,18,10,26,20,13,30.23,30.11,5,0,5,0.00
2013-11-12,67,60,56,32,23,15,33,24,17,30.29,30.19,4,0,4,0.00
2013-11-13,65,59,55,36,32,26,44,37,32,30.25,30.10,3,0,3,0.00
2013-11-14,62,56,48,36,30,25,53,37,31,30.13,29.82,2,0,2,0.00
2013-11-15,53,47,42,38,35,31,75,63,53,29.83,29.69,6,0,6,0.00
2013-11-16,50,44,40,39,36,34,80,73,62,29.89,29.72,1,0,7,0.00
2013-11-17,51,45,40,40,36,34,80,72,59,30.07,29.89,6,0,6,0.00
2013-11-18,54,46,41,40,37,34,79,70,57,30.13,30.04,5,0,5,0.00
2013-11-19,53,47,43,42,39,35,93,76,61,30.07,29.94,4,0,4,0.18
2013-11-20,49,44,39,47,42,38,96,95,92,29.95,29.82,5,0,5,0.92
2013-11-21,45,40,38,40,31,20,96,71,47,29.92,29.82,14,1,14,0.01
2013-11-22,48,43,38,26,16,8,54,35,23,29.97,29.89,14,1,14,0.00
2013-11-23,46,42,38,36,30,16,87,64,33,30.07,29.92,9,0,9,0.00
2013-11-24,47,41,36,38,35,32,89,79,65,30.21,30.06,4,0,4,0.00
2013-11-25,50,45,39,40,36,32,81,72,61,30.28,30.21,3,0,3,0.00
2013-11-26,57,51,45,40,30,21,68,45,35,30.25,30.08,4,0,4,0.00
2013-11-27,56,50,47,36,29,24,54,44,38,30.08,29.89,4,0,4,0.00
2013-11-28,53,48,45,38,32,28,65,54,43,30.07,29.89,5,0,5,0.00
2013-11-29,53,48,43,38,34,28,68,58,43,30.21,30.07,5,0,5,0.00
2013-11-30,53,48,45,37,34,29,69,59,48,30.25,30.18,4,0,4,0.00